Location: Observatoire
(46.1952°N, 5.3391°E)
Time: 13:36:25
(UTC+02:00)

CUTE 1.7 + AOD 2 - Pass Details

Date: 28 April 2024
Orbit: 569 x 586 km, 97.8° (Epoch: 25 May)

Event Time Altitude Azimuth Distance (km) Brightness Sun altitude
Rises 04:08:48 0° 30° (NNE) 2,783 ? -20.5°
Reaches altitude 10° 04:11:41 10° 52° (NE) 1,878 ? -20.1°
Maximum altitude 04:14:15 16° 91° (E) 1,518 ? -19.8°
Drops below altitude 10° 04:16:47 10° 130° (SE) 1,867 ? -19.6°
Enters shadow 04:18:39 - 147° (SSE) 2,423 ? -19.3°
